www.pogodaiklimat.ru

Погода и климат >> Архив погоды >> Россия >> Чечня >> Наурская


ПОГОДА в Наурской

  • Прогноз погоды в Наурской
  • Монитор погоды в Наурской

АРХИВ ПОГОДЫ в Наурской

Время (UTC), дата Ветер
(напр.,м/с)
 
Видим.   Явления Облачность Т
(С)
Тd
(С)
f
(%)
Тe
(С)
Тes
(С)
Комфортность P
(гПа)
Po
(гПа)
Тmin
(С)
Tmax
(С)
R
(мм)
R24
(мм)
S
(см)
12 16.09 ЮВ 3 20 км ясно +28.2 +12.5 38 +30 +35 жарко 1013.4 1004.3
15 16.09 штиль 0 20 км ясно +25.0 +12.1 45 +27 +27 жарко 1011.8 1002.6 +28.2
18 16.09 штиль 0 10 км 3/0
[Cc]
+17.6 +13.0 74 +18 +18 1012.5 1003.1
21 16.09 штиль 0 10 км 8/0
[Cc]
+15.0 +12.5 85 +15 +15 1012.3 1002.7
00 17.09 СЗ 1 10 км 10/0
[Ac As]
+15.8 +13.7 87 +16 +16 1012.3 1002.7
03 17.09 штиль 0 20 км 10/6 600 м
[Cb cap Ac inh]
+15.0 +11.9 82 +15 +15 1012.6 1003.0 +15.0
06 17.09 СЗ 3 20 км 8/0
[Cc]
+22.6 +10.7 47 +25 +29 комфорт 1012.3 1003.0
09 17.09 С 2 20 км 4/0
[Cs]
+26.8 +10.7 36 +28 +38 жарко 1010.4 1001.3
12 17.09 З 5 20 км 9/8 600 м
[Cb cap Ac inh]
+26.4 +9.9 35 +27 +27 жарко 1009.9 1000.8
15 17.09 СЗ 2 20 км слаб. ливневой дождь 9/6 600 м
[Cb cap Ac inh]
+19.4 +14.8 75 +22 +22 комфорт 1011.7 1002.3 +26.8 0.0
18 17.09 штиль 0 10 км {ливн. осадки} 8/5 600 м
[Cb cap Ac inh]
+16.8 +13.2 79 +17 +17 1012.2 1002.7
21 17.09 штиль 0 10 км 9/0
[Ac inh]
+13.6 +11.2 85 +13 +13 1012.3 1002.7
00 18.09 З 1 10 км ясно +14.2 +11.6 84 +15 +15 1013.1 1003.5
03 18.09 З 3 20 км ясно +15.2 +8.5 64 +15 +15 1014.6 1005.0 +13.6 0.0
06 18.09 С 2 20 км ясно +21.8 +10.3 48 +24 +29 комфорт 1015.4 1006.0
09 18.09 ЮВ 1 20 км ясно +26.2 +9.1 34 +27 +40 жарко 1014.3 1005.1
12 18.09 В 2 20 км ясно +27.5 +9.3 32 +28 +33 жарко 1012.4 1003.2
15 18.09 В 2 20 км ясно +24.0 +9.6 40 +25 +25 комфорт 1011.8 1002.6 +27.5
18 18.09 штиль 0 10 км ясно +16.8 +10.0 64 +17 +17 1012.1 1002.6
21 18.09 штиль 0 10 км ясно +12.5 +9.4 81 +12 +12 1012.3 1002.6
00 19.09 З 1 10 км ясно +14.2 +9.8 75 +15 +15 1013.8 1004.2
03 19.09 З 1 20 км ясно +14.0 +9.3 73 +14 +14 1018.4 1008.8 +14.0
06 19.09 З 1 20 км 8/0
[Ci sp]
+20.8 +9.2 47 +23 +29 комфорт 1020.1 1010.7
09 19.09 В 1 20 км ясно +23.8 +9.3 40 +25 +38 комфорт 1019.0 1009.7
12 19.09 В 1 20 км ясно +25.3 +9.0 36 +26 +32 жарко 1018.6 1009.5
15 19.09 В 2 20 км 8/0
[Ac As]
+22.5 +8.1 40 +24 +24 комфорт 1019.3 1009.9 +25.3
18 19.09 штиль 0 10 км ясно +16.6 +7.7 56 +17 +17 1020.0 1010.5
21 19.09 С 1 10 км ясно +12.4 +7.9 74 +12 +12 1019.0 1009.3
00 20.09 штиль 0 10 км ясно +10.2 +7.0 81 +10 +10 1018.2 1008.5
03 20.09 СЗ 1 20 км ясно +9.1 +6.5 84 +8 +8 1018.6 1008.8 +9.1
06 20.09 СВ 2 20 км 3/0
[Ci sp]
+18.5 +9.2 55 +19 +25 1016.7 1007.3
09 20.09 В 3 20 км 9/8 600 м
[Cb cap Ac inh]
+21.6 +11.8 54 +24 +25 комфорт 1013.8 1004.5
12 20.09 В 5 20 км 10/8 600 м
[Cb cap Ac inh]
+22.2 +11.7 51 +24 +25 комфорт 1011.5 1002.2
15 20.09 В 3 20 км 10/8 600 м
[Cb cap Ac inh]
+21.2 +10.9 52 +23 +23 комфорт 1009.7 1000.4 +22.2
18 20.09 В 4 10 км 10/8 600 м
[Cb cap Ac inh]
+20.0 +9.8 52 +21 +21 комфорт 1009.3 1000.0
21 20.09 СЗ 1 10 км 10/8 600 м
[Cb cap Ac inh]
+18.0 +11.2 64 +19 +19 1009.0 999.6
00 21.09 штиль 0 10 км 9/6 600 м
[Cb cap Ac inh]
+17.0 +11.3 69 +17 +17 1009.4 999.9
03 21.09 СЗ 4 20 км слаб. ливневой дождь 10/8 600 м
[Cb cap Ac inh]
+10.6 +9.0 90 +8 +8 1013.9 1004.2 +10.6 0.5
06 21.09 СЗ 3 20 км слаб. ливневой дождь 10/8 600 м
[Cb cap Ac inh]
+11.0 +9.4 90 +9 +9 1016.2 1006.5
09 21.09 СЗ 3 20 км {ливн. осадки} 10/9 600 м
[Cb cap Ac inh]
+11.8 +9.2 84 +10 +10 1017.0 1007.3
12 21.09 З 3 20 км слаб. ливневой дождь 10/9 600 м
[Cb cap Ac inh]
+11.6 +9.8 89 +10 +10 1018.3 1008.6
15 21.09 ЮЗ 2 20 км {ливн. осадки} 9/9 600 м
[Cb cap Ac inh]
+12.2 +10.1 87 +11 +11 1018.1 1008.4 +12.2 2
18 21.09 ЮЗ 2 10 км {ливн. осадки} 10/9 600 м
[Cb cap Ac inh]
+11.6 +9.2 85 +10 +10 1018.9 1009.2
21 21.09 З 1 10 км слаб. ливневой дождь 10/9 600 м
[Cb cap Ac inh]
+10.4 +8.8 90 +10 +10 1020.8 1011.1
00 22.09 ЮЗ 1 10 км {ливн. осадки} 10/9 600 м
[Cb cap Ac inh]
+10.2 +6.6 78 +10 +10 1021.5 1011.8
03 22.09 З 2 20 км 3/3 600 м
[Cb cap]
+9.7 +5.8 77 +8 +8 1023.3 1013.4 +9.7 2
06 22.09 СЗ 4 20 км ясно +14.1 +4.1 51 +13 +17 1024.3 1014.6
09 22.09 З 3 20 км 3/3 1000 м
[Cu hum]
+17.0 +2.5 38 +17 +23 1022.5 1012.9
12 22.09 З 1 20 км ясно +19.0 +2.9 34 +20 +27 1020.1 1010.6
15 22.09 ЮЗ 1 20 км ясно +16.4 +2.5 39 +17 +17 1019.3 1009.8 +19.0
18 22.09 Ю 1 10 км ясно +9.4 +5.0 74 +9 +9 1020.3 1010.5
21 22.09 СЗ 1 10 км ясно +7.0 +4.7 85 +6 +6 1020.4 1010.5
00 23.09 штиль 0 10 км ясно +5.4 +3.5 88 +4 +4 1020.1 1010.1
03 23.09 Ю 1 20 км ясно +4.2 +2.7 90 +3 +3 1019.7 1009.7 +4.2
06 23.09 З 1 50 км ясно +18.0 +7.8 51 +19 +25 1020.1 1010.6
09 23.09 СЗ 2 50 км 3/3 1000 м
[Cu hum]
+21.6 +6.2 37 +22 +30 комфорт 1018.3 1008.9

 

Местоположение метеостанции Наурская (Чечня, Россия): широта 43.65 долгота 45.32 высота над уровнем моря 80 м.

В архиве по умолчанию представлена погода в Наурской за последнюю неделю. Архивные данные за месяц целиком и за предыдущие месяцы, начиная с января 2011 года, Вы можете получить, выбрав интересующий диапазон дат из раскрывающегося списка и нажав кнопку "Ввод!".


*Определитесь, кто Вы:
робот инопланетянин человек

Внимание! Время в таблицах - всемирное. Для получения местного времени необходимо прибавить поправку, которая равна 3 ч.

Смотрите также архив погоды в соседних городах и на ближайших метеорологических станциях:

Погода в Моздоке (Северная Осетия, Россия) (53 км)
Погода в Грозном (Чечня, Россия) (55 км)
Погода в Рощино (Ставропольский край, Россия) (56 км)
Погода в Назрани (Ингушетия, Россия) (67 км)
Погода в Терекли-Мектебе (Дагестан, Россия) (70 км)
Погода в Гудермесе (Чечня, Россия) (73 км)
Погода в Шелковской (Чечня, Россия) (86 км)
Погода в Владикавказе (Северная Осетия, Россия) (86 км)
Погода в Шатое (Чечня, Россия) (90 км)
Погода в Прохладный (Кабардино-Балкария, Россия) (103 км)

Пояснения к столбцам:

Ветер - указаны скорость ветра в м/с - средняя за 10 мин, порывы в срок и между сроками (в фигурных скобках) и направление, откуда дует ветер: С - северный, СВ - северо-восточный, В - восточный, ЮВ - юго-восточный, Ю - южный, ЮЗ - юго-западный, З - западный, СЗ - северо-западный.
Видимость - горизонтальная дальность видимости в метрах или километрах. При видимости от 1 до 10 км при отсутствии осадков обычно наблюдается дымка, при ухудшении видимости до 1 км и менее - туман. В сухую погоду видимость может ухудшаться дымом, пылью или мглою.
Явления - указаны атмосферные явления, наблюдавшиеся в срок или в последний час перед сроком; фигурными скобками обозначены явления, наблюдавшиеся между сроками (за 1-3 часа до срока); квадратными скобками обозначены град или гололедные отложения с указанием их диаметра в мм.
Облачность - указаны через наклонную черту общая и нижняя облачность в баллах и высота нижней границы облаков в метрах; квадратными скобками обозначены формы облаков: Ci - перистые, Cs - перисто-слоистые, Cc - перисто-кучевые, Ac - высококучевые, As - высокослоистые, Sc - слоисто-кучевые, Ns - слоисто-дождевые, Cu - кучевые, Cb - кучево-дождевые. Подробнее классификацию облаков см. в Атласе облаков (PDF).
T - Температура воздуха - температура, измеренная на высоте 2 м над землей.
Td - Температура точки росы - температура, при понижении до которой содержащийся в воздухе водяной пар достигнет насыщения.
f - Относительная влажность воздуха - влажноcть воздуха, измеренная на высоте 2 м над землей.
Te - Эффективная температура - температура, которую ощущает одетый по сезону человек в тени. Характеристика душности погоды. При расчете учитывается влияние влажности воздуха и скорости ветра на теплоощущения человека.
Tes - Эффективная температура на солнце - температура, которую ощущает человек, с поправкой на солнечный нагрев. Характеристика знойности погоды. Зависит от высоты солнца над горизонтом, облачности и скорости ветра. Ночью, в пасмурную погоду, а также при ветре 12 м/с и более поправка равна нулю.
P - Атмосферное давление - приведенное к уровню моря атмосферное давление.
Po - Атмосферное давление - измеренное на уровне метеостанции атмосферное давление.
Tmin - Минимальная температура - минимум температуры воздуха на высоте 2 м над землей.
Tmax - Максимальная температура - максимум температуры воздуха на высоте 2 м над землей.
R - Количество осадков - Количество выпавших осадков за период времени, мм. При наведении курсора мыши на число - период времени, за который выпало указанное количество осадков.
R24 - Количество осадков - Количество выпавших осадков за 24 часа, мм.
S - Снежный покров - Высота снежного покрова, см. При наведении курсора мыши на число - состояние снежного покрова и степень покрытия местности в баллах.